Truckee-Tahoe, CA

6:49 AM PDT on June 18, 2018 (GMT -0700)
Truckee-Tahoe

Weather History for KTRK - October, 2017

Change the Weather History Date:

Tuesday, October 10, 2017

  Actual Average Record
Temperature  
Mean Temperature 42 °F -  
Max Temperature 64 °F 65 °F 81 °F (1971)
Min Temperature 19 °F 30 °F 14 °F (1973)
Degree Days  
Heating Degree Days 24    
Moisture  
Dew Point 19 °F    
Average Humidity 56    
Maximum Humidity 93    
Minimum Humidity 15    
Precipitation  
Precipitation 0.00 in - - ()
Sea Level Pressure  
Sea Level Pressure 30.10 in    
Wind  
Wind Speed 2 mph (SSW)    
Max Wind Speed 15 mph    
Max Gust Speed 22 mph    
Visibility 10 miles    
Events      
Averages and records for this station are not official NWS values.
T = Trace of Precipitation, MM = Missing Value Source: NWS Daily Summary

Daily Weather History Graph

Daily Weather History Graph

Search for Another Location

Airport or City:

Astronomy

Oct. 10, 2017 Rise Set
Actual Time 7:05 AM PDT 6:28 PM PDT
Civil Twilight 6:38 AM PDT 6:55 PM PDT
Nautical Twilight 6:07 AM PDT 7:26 PM PDT
Astronomical Twilight 5:36 AM PDT 7:57 PM PDT
Moon 10:38 PM PDT (10/10) 12:25 PM PDT (10/10)
Length of Visible Light 12h 16m
Length of Day
11h 22m
Waning Gibbous, 70% of the Moon is Illuminated
Oct 10
Waning Gibbous
Oct 12
Last Quarter
Oct 19
New
Oct 27
First Quarter
Nov 3
Full

Hourly Weather History & Observations

Time (PDT) Temp. Windchill Dew Point Humidity Pressure Visibility Wind Dir Wind Speed Gust Speed Precip Events Conditions
12:15 AM 26.6 °F - 17.6 °F 69% 30.17 in 10.0 mi Calm Calm - N/A   Clear
12:35 AM 28.4 °F 24.6 °F 17.6 °F 64% 30.17 in 10.0 mi SE 3.5 mph - N/A   Clear
12:55 AM 30.2 °F - 19.4 °F 64% 30.17 in 10.0 mi Calm Calm - N/A   Clear
1:15 AM 24.8 °F - 17.6 °F 74% 30.17 in 10.0 mi Calm Calm - N/A   Clear
1:35 AM 26.6 °F - 19.4 °F 74% 30.17 in 10.0 mi Calm Calm - N/A   Clear
1:55 AM 26.6 °F - 17.6 °F 69% 30.17 in 10.0 mi Calm Calm - N/A   Clear
2:15 AM 24.8 °F - 17.6 °F 74% 30.17 in 10.0 mi Calm Calm - N/A   Clear
2:35 AM 28.4 °F - 19.4 °F 69% 30.17 in 10.0 mi Calm Calm - N/A   Clear
2:55 AM 26.6 °F - 19.4 °F 74% 30.17 in 10.0 mi Calm Calm - N/A   Clear
3:15 AM 26.6 °F - 17.6 °F 69% 30.16 in 10.0 mi Calm Calm - N/A   Clear
3:35 AM 19.4 °F - 14.0 °F 80% 30.16 in 10.0 mi Calm Calm - N/A   Clear
3:55 AM 24.8 °F - 19.4 °F 80% 30.15 in 10.0 mi Calm Calm - N/A   Clear
4:15 AM 24.8 °F - 19.4 °F 80% 30.16 in 10.0 mi Calm Calm - N/A   Clear
4:35 AM 21.2 °F - 17.6 °F 86% 30.16 in 10.0 mi Calm Calm - N/A   Clear
4:55 AM 23.0 °F - 19.4 °F 86% 30.16 in 10.0 mi Calm Calm - N/A   Clear
5:15 AM 23.0 °F - 19.4 °F 86% 30.16 in 10.0 mi Calm Calm - N/A   Clear
5:35 AM 23.0 °F - 19.4 °F 86% 30.15 in 10.0 mi Calm Calm - N/A   Clear
5:55 AM 23.0 °F - 19.4 °F 86% 30.16 in 10.0 mi Calm Calm - N/A   Clear
6:15 AM 23.0 °F - 19.4 °F 86% 30.16 in 10.0 mi Calm Calm - N/A   Clear
6:35 AM 21.2 °F - 19.4 °F 93% 30.16 in 10.0 mi Calm Calm - N/A   Clear
6:45 AM 21.2 °F - 17.6 °F 86% 30.16 in 10.0 mi Calm Calm - N/A   Partly Cloudy
7:45 AM 24.8 °F - 19.4 °F 80% 30.16 in 10.0 mi Calm Calm - N/A   Partly Cloudy
8:45 AM 30.2 °F - 21.2 °F 69% 30.16 in 10.0 mi Calm Calm - N/A   Scattered Clouds
10:55 AM 50.0 °F - 24.8 °F 37% 30.12 in 10.0 mi Calm Calm - N/A   Mostly Cloudy
11:45 AM 60.8 °F - 19.4 °F 20% 30.11 in 10.0 mi SW 8.1 mph - N/A   Scattered Clouds
12:50 PM 62.6 °F - 17.6 °F 18% 30.10 in 10.0 mi SSW 11.5 mph 18.4 mph N/A   Partly Cloudy
1:55 PM 64.4 °F - 17.6 °F 16% 30.06 in 10.0 mi South 11.5 mph 21.9 mph N/A   Scattered Clouds
2:50 PM 64.4 °F - 15.8 °F 15% 30.06 in 10.0 mi SSW 15.0 mph 19.6 mph N/A   Scattered Clouds
3:45 PM 62.6 °F - 17.6 °F 18% 30.05 in 10.0 mi WSW 11.5 mph 17.3 mph N/A   Scattered Clouds
4:50 PM 60.8 °F - 17.6 °F 19% 30.05 in 10.0 mi SW 9.2 mph 20.7 mph N/A   Scattered Clouds
5:45 PM 57.2 °F - 17.6 °F 21% 30.04 in 10.0 mi SW 9.2 mph - N/A   Scattered Clouds
6:15 PM 53.6 °F - 19.4 °F 26% 30.04 in 10.0 mi WSW 5.8 mph - N/A   Clear
6:35 PM 50.0 °F - 19.4 °F 30% 30.05 in 10.0 mi WSW 4.6 mph - N/A   Clear
6:55 PM 50.0 °F - 19.4 °F 30% 30.04 in 10.0 mi SSW 4.6 mph - N/A   Clear
7:15 PM 46.4 °F 42.9 °F 19.4 °F 34% 30.05 in 10.0 mi SSW 6.9 mph - N/A   Clear
7:35 PM 46.4 °F 43.5 °F 19.4 °F 34% 30.06 in 10.0 mi South 5.8 mph - N/A   Clear
7:55 PM 42.8 °F 39.3 °F 17.6 °F 36% 30.05 in 10.0 mi SSE 5.8 mph - N/A   Clear
8:15 PM 41.0 °F 39.0 °F 19.4 °F 42% 30.05 in 10.0 mi SSW 3.5 mph - N/A   Clear
8:35 PM 37.4 °F - 17.6 °F 45% 30.04 in 10.0 mi Calm Calm - N/A   Clear
8:55 PM 37.4 °F 34.9 °F 19.4 °F 48% 30.04 in 10.0 mi SSW 3.5 mph - N/A   Clear
9:15 PM 41.0 °F - 19.4 °F 42% 30.04 in 10.0 mi Calm Calm - N/A   Clear
9:35 PM 41.0 °F - 19.4 °F 42% 30.04 in 10.0 mi Calm Calm - N/A   Clear
9:55 PM 37.4 °F - 19.4 °F 48% 30.04 in 10.0 mi Calm Calm - N/A   Clear
10:15 PM 35.6 °F - 19.4 °F 52% 30.03 in 10.0 mi Calm Calm - N/A   Clear
10:35 PM 33.8 °F 30.8 °F 17.6 °F 52% 30.04 in 10.0 mi NNW 3.5 mph - N/A   Clear
10:55 PM 35.6 °F - 19.4 °F 52% 30.03 in 10.0 mi Calm Calm - N/A   Clear
11:15 PM 33.8 °F - 19.4 °F 56% 30.03 in 10.0 mi Calm Calm - N/A   Clear
11:35 PM 33.8 °F - 19.4 °F 56% 30.03 in 10.0 mi Calm Calm - N/A   Clear
11:55 PM 35.6 °F - 19.4 °F 52% 30.02 in 10.0 mi Calm Calm - N/A   Clear